Location: Burleson Fire Department Station 2
(32.5391°N, 97.3075°W)
Time: 01:25:23
(UTC+00:00)

NOAA 15 - Pass Details

Date: 20 December 2025
Orbit: 793 x 810 km, 98.5° (Epoch: 20 January)

Event Time Altitude Azimuth Distance (km) Brightness Sun altitude
Rises 01:14:50 0° 173° (S) 3,309 7.9 -22.0°
Reaches altitude 10° 01:17:10 10° 176° (S) 2,380 7.1 -22.5°
Maximum altitude 01:22:25 67° 258° (WSW) 870 4.9 -23.6°
Drops below altitude 10° 01:27:39 10° 341° (NNW) 2,385 7.1 -24.7°
Sets 01:30:01 0° 344° (NNW) 3,317 7.8 -25.1°
